Location: Heppenheim
(49.6410°N, 8.6370°E)
Time: 04:06:59
(UTC+01:00)

ISS - Visible Passes

Search period start: 28 February 2017 00:00
Search period end: 10 March 2017 00:00
Orbit: 399 x 408 km, 51.6° (Epoch: 28 February)

Date Brightness Start Highest point End Pass type
(mag) Time Alt. Az. Time Alt. Az. Time Alt. Az.
03 Mar -0.5 05:47:19 10° S 05:49:11 14° SE 05:51:03 10° ESE visible
04 Mar -2.1 06:29:30 10° SW 06:32:37 41° SSE 06:35:46 10° E visible
05 Mar -1.4 05:37:27 11° SSW 05:40:08 26° SE 05:42:58 10° E visible
06 Mar -1.0 04:47:11 16° SSE 04:47:43 17° SE 04:49:55 10° E visible
06 Mar -3.1 06:20:27 10° WSW 06:23:44 71° SSE 06:27:02 10° ENE visible
07 Mar -2.6 05:29:26 23° SW 05:31:09 47° SSE 05:34:21 10° ENE visible
08 Mar -1.7 04:38:57 29° SE 04:38:57 29° SE 04:41:33 10° E visible
08 Mar -3.3 06:11:35 10° WSW 06:14:53 78° NNW 06:18:12 10° ENE visible
09 Mar 0.0 03:48:23 11° E 03:48:23 11° E 03:48:34 10° E visible
09 Mar -3.3 05:21:01 36° WSW 05:22:13 79° SSE 05:25:31 10° ENE visible
